Change the Weather History Date:

Sunday, March 2, 2014

  Actual Average (KDTO) Record (KDTO)
Temperature  
Mean Temperature 30 °F -  
Max Temperature 44 °F 59 °F 78 °F (2006)
Min Temperature 15 °F 36 °F 17 °F (2014)
Degree Days  
Heating Degree Days 36    
Moisture  
Dew Point 19 °F    
Average Humidity 87    
Maximum Humidity 95    
Minimum Humidity 76    
Precipitation  
Precipitation 0.14 in - - ()
Sea Level Pressure  
Sea Level Pressure 30.21 in    
Wind  
Wind Speed 18 mph (NNW)    
Max Wind Speed 24 mph    
Max Gust Speed 31 mph    
Visibility 6 miles    
Events Snow    
Averages and records for this station are not official NWS values.
T = Trace of Precipitation, MM = Missing Value Source: NWS Daily Summary

Daily Weather History Graph

Daily Weather History Graph

Search for Another Location

Airport or City:

Trip Planner

Search our weather history database for the weather conditions in past years. The results will help you decide how hot, cold, wet, or windy it might be!

Date:

Astronomy

Mar. 02, 2014 Rise Set
Actual Time 6:55 AM CST 6:26 PM CST
Civil Twilight 6:30 AM CST 6:51 PM CST
Nautical Twilight 6:02 AM CST 7:20 PM CST
Astronomical Twilight 5:33 AM CST 7:49 PM CST
Moon 7:33 AM CST (3/2) 8:16 PM CST (3/2)
Length of Visible Light 12h 20m
Length of Day
11h 30m
Waxing Crescent, 3% of the Moon is Illuminated
Mar 2
Waxing Crescent
Mar 8
First Quarter
Mar 16
Full
Mar 23
Last Quarter
Mar 30
New

Hourly Weather History & Observations

Time (CST) Temp. Windchill Dew Point Humidity Pressure Visibility Wind Dir Wind Speed Gust Speed Precip Events Conditions
12:15 AM 44.2 °F 36.4 °F 37.0 °F 76% 30.02 in 7.0 mi NNW 18.4 mph 27.6 mph N/A   Overcast
12:35 AM 42.3 °F 33.6 °F 35.4 °F 77% 30.03 in 7.0 mi North 19.6 mph 25.3 mph N/A   Overcast
12:55 AM 40.5 °F 32.1 °F 33.4 °F 76% 30.04 in 7.0 mi North 16.1 mph 21.9 mph N/A   Overcast
1:15 AM 38.1 °F 29.1 °F 32.5 °F 80% 30.05 in 7.0 mi North 16.1 mph - N/A   Light Drizzle
1:35 AM 36.5 °F 25.7 °F 32.7 °F 86% 30.08 in 5.0 mi North 20.7 mph 27.6 mph N/A   Light Drizzle
1:55 AM 34.5 °F 23.4 °F 32.0 °F 90% 30.07 in 4.0 mi North 19.6 mph 25.3 mph N/A   Drizzle
2:15 AM 32.9 °F 22.0 °F 31.5 °F 94% 30.08 in 4.0 mi North 17.3 mph 25.3 mph N/A   Overcast
2:35 AM 31.8 °F 20.6 °F 30.2 °F 94% 30.09 in 3.0 mi NNW 17.3 mph 26.5 mph N/A   Overcast
2:55 AM 30.6 °F 19.4 °F 29.3 °F 95% 30.09 in 3.0 mi North 16.1 mph 27.6 mph N/A   Overcast
3:15 AM 29.7 °F 17.1 °F 28.4 °F 95% 30.09 in 4.0 mi NNW 19.6 mph - N/A   Overcast
3:35 AM 28.8 °F 16.6 °F 27.3 °F 94% 30.10 in 5.0 mi NNW 17.3 mph 26.5 mph N/A   Overcast
3:55 AM 28.4 °F 16.6 °F 27.0 °F 94% 30.11 in 3.0 mi North 16.1 mph - N/A   Overcast
4:15 AM 27.3 °F 15.2 °F 25.7 °F 94% 30.12 in 3.0 mi North 16.1 mph 25.3 mph N/A   Overcast
4:35 AM 27.1 °F 14.9 °F 25.9 °F 95% 30.13 in 4.0 mi NNW 16.1 mph 19.6 mph N/A   Overcast
4:55 AM 27.1 °F 14.5 °F 25.7 °F 94% 30.14 in 4.0 mi NNW 17.3 mph 23.0 mph N/A   Overcast
5:15 AM 27.0 °F 16.1 °F 25.5 °F 94% 30.15 in 3.0 mi North 12.7 mph 19.6 mph N/A   Overcast
5:35 AM 26.6 °F 13.8 °F 24.8 °F 93% 30.15 in 3.0 mi NNW 17.3 mph - N/A   Overcast
5:55 AM 26.1 °F 13.1 °F 24.6 °F 94% 30.15 in 2.5 mi NNW 17.3 mph 24.2 mph N/A   Overcast
6:15 AM 26.1 °F 14.0 °F 24.6 °F 94% 30.17 in 3.0 mi NNW 15.0 mph - N/A   Overcast
6:35 AM 25.7 °F 12.3 °F 23.9 °F 93% 30.18 in 5.0 mi NNW 18.4 mph 21.9 mph N/A   Overcast
6:55 AM 25.5 °F 13.3 °F 23.7 °F 93% 30.18 in 7.0 mi NNW 15.0 mph 20.7 mph N/A   Overcast
7:15 AM 25.0 °F 12.6 °F 23.2 °F 93% 30.19 in 5.0 mi NNW 15.0 mph 21.9 mph N/A   Overcast
7:35 AM 24.4 °F 11.0 °F 22.8 °F 94% 30.20 in 7.0 mi North 17.3 mph 25.3 mph N/A   Overcast
7:55 AM 23.7 °F 10.5 °F 22.1 °F 94% 30.20 in 5.0 mi North 16.1 mph 23.0 mph N/A   Overcast
8:15 AM 22.8 °F 10.4 °F 21.2 °F 93% 30.19 in 3.0 mi NNW 13.8 mph 23.0 mph N/A   Overcast
8:35 AM 22.3 °F 7.8 °F 20.5 °F 93% 30.21 in 5.0 mi NNW 18.4 mph 23.0 mph N/A   Overcast
8:55 AM 21.2 °F 7.8 °F 19.2 °F 92% 30.21 in 7.0 mi North 15.0 mph 26.5 mph N/A   Overcast
9:15 AM 21.2 °F 6.8 °F 19.2 °F 92% 30.22 in 7.0 mi North 17.3 mph 20.7 mph N/A   Overcast
9:35 AM 21.2 °F 7.3 °F 19.4 °F 93% 30.22 in 5.0 mi NNW 16.1 mph - N/A   Overcast
9:55 AM 20.5 °F 5.9 °F 18.7 °F 93% 30.23 in 5.0 mi North 17.3 mph 20.7 mph N/A   Overcast
10:15 AM 20.3 °F 6.6 °F 18.0 °F 91% 30.23 in 7.0 mi NNW 15.0 mph 18.4 mph N/A   Overcast
10:35 AM 19.6 °F 4.7 °F 17.4 °F 91% 30.23 in 4.0 mi North 17.3 mph 23.0 mph N/A   Overcast
10:55 AM 19.4 °F 3.6 °F 16.9 °F 90% 30.22 in 5.0 mi NNW 19.6 mph 25.3 mph N/A   Overcast
11:15 AM 18.9 °F 3.3 °F 16.3 °F 90% 30.22 in 7.0 mi NNW 18.4 mph - N/A   Overcast
11:35 AM 18.5 °F 4.3 °F 15.8 °F 89% 30.21 in 7.0 mi North 15.0 mph - N/A   Overcast
11:55 AM 18.5 °F 3.8 °F 15.8 °F 89% 30.22 in 7.0 mi NNW 16.1 mph 21.9 mph N/A   Overcast
12:15 PM 19.2 °F 6.4 °F 16.3 °F 89% 30.22 in 5.0 mi NNW 12.7 mph - N/A   Overcast
12:35 PM 19.4 °F 5.5 °F 17.1 °F 91% 30.19 in 4.0 mi NNW 15.0 mph 20.7 mph N/A   Overcast
12:55 PM 19.4 °F 4.5 °F 17.1 °F 91% 30.19 in 3.0 mi NNW 17.3 mph 23.0 mph N/A   Overcast
1:15 PM 19.9 °F 4.8 °F 17.4 °F 90% 30.20 in 2.5 mi NNW 18.4 mph 25.3 mph 0.01 in Snow Light Snow
1:35 PM 20.3 °F 5.2 °F 18.0 °F 91% 30.20 in 1.5 mi NNW 18.4 mph 21.9 mph 0.01 in Snow Light Snow
1:55 PM 19.9 °F 4.3 °F 16.9 °F 88% 30.18 in 1.2 mi NNW 19.6 mph 25.3 mph 0.01 in Snow Light Snow
2:15 PM 19.4 °F 3.6 °F 16.3 °F 88% 30.17 in 3.0 mi NW 19.6 mph - 0.01 in Snow Light Snow
2:35 PM 19.2 °F 4.3 °F 16.2 °F 88% 30.17 in 1.0 mi NW 17.3 mph 23.0 mph 0.03 in Snow Light Snow
2:55 PM 18.5 °F 3.3 °F 15.4 °F 88% 30.23 in 1.0 mi NW 17.3 mph 25.3 mph 0.04 in Snow Light Snow
3:15 PM 18.0 °F 1.7 °F 14.9 °F 88% 30.23 in 0.8 mi NW 19.6 mph 26.5 mph 0.01 in Snow Light Snow
3:35 PM 17.2 °F -0.8 °F 14.4 °F 88% 30.19 in 0.8 mi NNW 24.2 mph 28.8 mph 0.01 in Snow Light Snow
3:55 PM 16.7 °F 0.1 °F 13.1 °F 86% 30.24 in 1.5 mi NW 19.6 mph 25.3 mph 0.03 in Snow Light Snow
4:15 PM 16.9 °F 0.8 °F 13.3 °F 86% 30.24 in 1.5 mi NW 18.4 mph 24.2 mph 0.02 in Snow Light Snow
4:35 PM 17.1 °F -0.6 °F 13.5 °F 86% 30.21 in 1.8 mi NW 23.0 mph 26.5 mph 0.05 in Snow Light Snow
4:55 PM 17.1 °F 2.0 °F 13.5 °F 86% 30.19 in 4.0 mi NNW 16.1 mph 23.0 mph 0.06 in Snow Light Snow
5:15 PM 17.4 °F 1.5 °F 12.7 °F 82% 30.23 in 10.0 mi NNW 18.4 mph 31.1 mph N/A   Mostly Cloudy
5:35 PM 17.4 °F 0.2 °F 12.6 °F 81% 30.25 in 10.0 mi NW 21.9 mph 26.5 mph N/A   Overcast
5:55 PM 16.7 °F 0.5 °F 12.0 °F 82% 30.23 in 7.0 mi NNW 18.4 mph 26.5 mph N/A Snow Light Snow
6:15 PM 16.7 °F -0.3 °F 11.3 °F 79% 30.26 in 10.0 mi NNW 20.7 mph 26.5 mph N/A   Scattered Clouds
6:35 PM 16.7 °F 0.1 °F 11.3 °F 79% 30.25 in 10.0 mi NNW 19.6 mph 25.3 mph N/A   Scattered Clouds
6:55 PM 16.7 °F 1.0 °F 11.3 °F 79% 30.24 in 10.0 mi North 17.3 mph 24.2 mph N/A   Clear
7:15 PM 16.7 °F 1.5 °F 11.3 °F 79% 30.26 in 10.0 mi NNW 16.1 mph 25.3 mph N/A   Scattered Clouds
7:35 PM 17.1 °F 0.1 °F 11.8 °F 80% 30.31 in 10.0 mi NW 20.7 mph 25.3 mph N/A   Mostly Cloudy
7:55 PM 17.1 °F 0.6 °F 11.8 °F 80% 30.28 in 10.0 mi NNW 19.6 mph 23.0 mph N/A Snow Light Snow
8:15 PM 17.1 °F 2.5 °F 11.8 °F 80% 30.30 in 10.0 mi NW 15.0 mph 24.2 mph N/A   Overcast
8:35 PM 16.9 °F 1.7 °F 11.5 °F 79% 30.32 in 10.0 mi NW 16.1 mph 23.0 mph N/A   Overcast
8:55 PM 17.1 °F 2.0 °F 11.8 °F 80% 30.34 in 10.0 mi NW 16.1 mph - N/A Snow Light Snow
9:15 PM 17.1 °F 2.5 °F 11.1 °F 77% 30.35 in 10.0 mi NW 15.0 mph 25.3 mph N/A Snow Light Snow
9:35 PM 16.7 °F 2.0 °F 10.9 °F 78% 30.35 in 10.0 mi NW 15.0 mph 25.3 mph N/A Snow Light Snow
9:55 PM 16.7 °F 1.0 °F 11.7 °F 81% 30.36 in 10.0 mi NW 17.3 mph 26.5 mph N/A Snow Light Snow
10:15 PM 16.2 °F -0.2 °F 10.2 °F 77% 30.37 in 10.0 mi NW 18.4 mph 23.0 mph N/A Snow Light Snow
10:35 PM 16.2 °F -0.2 °F 10.4 °F 78% 30.37 in 10.0 mi NW 18.4 mph 24.2 mph N/A   Overcast
10:55 PM 15.8 °F -1.5 °F 9.7 °F 77% 30.38 in 10.0 mi NNW 20.7 mph - N/A   Overcast
11:15 PM 15.8 °F -1.1 °F 9.9 °F 77% 30.39 in 10.0 mi NNW 19.6 mph 24.2 mph N/A   Overcast
11:30 PM 15.8 °F -0.6 °F 10.4 °F 79% 30.39 in 10.0 mi NNW 18.4 mph 21.9 mph N/A Snow Light Snow
11:55 PM 15.8 °F -1.9 °F 10.0 °F 78% 30.39 in 10.0 mi NNW 21.9 mph 27.6 mph N/A Snow Light Snow